STARLINK-2203

decayed
NORAD ID: 47417 Int'l Des: 2021-006 Owner: SPXS Country: US Constellation: starlink
LEOCIRCULARRETROGRADE
Gruppe

Über STARLINK-2203

Beschreibung wird geladen...

Höhenverlauf

Altitude vs Time

uPlot chart will show altitude changes over time

Zweizeiliger Elementsatz

1 47417U 21006E 21351.24868390 .28890191 27195-5 11134-2 0 9993
2 47417 97.4700 54.0689 0007795 251.1367 109.4888 16.43439498 50001
Epoch: 17. Dez. 2021 • Age: 32914 hours

Aktueller Status

Position data unavailable
Startdatum 24. Jan. 2021
Alter 4.6 years
Verglühungsdatum 17. Dez. 2021
Typ internet

Technische Details

Klassifizierung Payload
Masse 260.00 kg
Trockenmasse 248.00 kg
Gesamtmasse 260.00 kg
Länge 0.20 m
Durchmesser 2.80 m
Spannweite 9.00 m
Form Box + pan
Hersteller SPXS
Bus-Typ Starlink
Phasenstatus Unknown Transfer Status
Besitzer/Staat SPXS/US

Große Konstellationen

Loading constellations...